Date String (YYYY-MM-DD hh:mm:ss) UTC,Instrument flags,Ambient pressure (hPa),Sample flow (lpm),Bypass flow (lpm),Sample temperature (°C),Ambient temperature (°C),ASC tube jacket temperature (°C),LED temperature (°C),Box temperature (°C),Sample RH (%),Span deviation,Mass concentration (μg/m³),Mass concentration (μg/m³),Mass concentration (μg/m³)
DateTimeUTC,F1_M11,P_M11,Q1_M11,Q2_M11,T1_M11,T2_M11,T3_M11,T4_M11,T5_M11,U1_M11,ZSPAN_M11,X0_M11,X2_M11,X1_M11
2022-04-15 23:00:00,,0819.9,5.00,0.00,27.6,27.0,00.0,36.4,29.5,09.1,0000.0,0019.94,0005.84,0004.05
2022-04-15 23:01:00,,0820.0,5.00,0.00,27.7,27.1,00.0,36.4,29.5,09.2,0000.0,0021.38,0005.87,0004.04
2022-04-15 23:02:00,,0820.0,5.00,0.00,27.7,27.1,00.0,36.4,29.6,09.2,0000.0,0021.08,0005.87,0004.04
2022-04-15 23:03:00,,0820.0,5.00,0.00,27.7,27.1,00.0,36.5,29.6,09.2,0000.0,0020.11,0005.84,0004.05
2022-04-15 23:04:00,,0819.9,5.00,0.00,27.7,27.1,00.0,36.5,29.6,09.2,0000.0,0020.41,0005.85,0004.03
2022-04-15 23:05:00,,0819.9,5.00,0.00,27.7,27.1,00.0,36.5,29.6,09.2,0000.0,0022.25,0005.85,0004.04
2022-04-15 23:06:00,,0819.9,4.99,0.00,27.7,27.1,00.0,36.5,29.6,09.1,0000.0,0023.08,0006.00,0004.11
2022-04-15 23:07:00,,0819.9,5.01,0.00,27.8,27.1,00.0,36.5,29.6,09.2,0000.0,0024.01,0006.11,0004.17
2022-04-15 23:08:00,,0819.9,5.01,0.00,27.8,27.1,00.0,36.5,29.7,09.1,0000.0,0024.82,0006.13,0004.19
2022-04-15 23:09:00,,0819.9,5.00,0.00,27.8,27.1,00.0,36.6,29.6,09.1,0000.0,0025.24,0006.12,0004.21
2022-04-15 23:10:00,,0819.9,5.00,0.00,27.8,27.1,00.0,36.6,29.6,09.1,0000.0,0026.59,0006.11,0004.23
2022-04-15 23:11:00,,0819.9,5.00,0.00,27.8,27.2,00.0,36.6,29.6,09.0,0000.0,0026.94,0006.06,0004.22
2022-04-15 23:12:00,,0819.9,5.02,0.00,27.8,27.2,00.0,36.6,29.6,09.0,0000.0,0025.01,0006.00,0004.20
2022-04-15 23:13:00,,0819.9,5.00,0.00,27.8,27.1,00.0,36.6,29.6,08.9,0000.0,0024.13,0005.96,0004.20
2022-04-15 23:14:00,,0819.9,4.99,0.00,27.8,27.1,00.0,36.6,29.6,08.8,0000.0,0024.43,0006.00,0004.19
2022-04-15 23:15:00,,0819.9,5.02,0.00,27.8,27.1,00.0,36.6,29.6,08.8,0000.0,0023.91,0006.01,0004.19
2022-04-15 23:16:00,,0819.9,4.99,0.00,27.8,27.1,00.0,36.6,29.6,08.8,0000.0,0021.87,0006.07,0004.19
2022-04-15 23:17:00,,0819.9,5.00,0.00,27.8,27.1,00.0,36.6,29.6,08.8,0000.0,0022.12,0006.06,0004.18
2022-04-15 23:18:00,,0819.9,5.00,0.00,27.8,27.1,00.0,36.6,29.6,09.0,0000.0,0021.60,0006.04,0004.16
2022-04-15 23:19:00,,0819.9,4.99,0.00,27.8,27.2,00.0,36.6,29.7,09.0,0000.0,0021.35,0006.06,0004.14
2022-04-15 23:20:00,,0819.9,4.99,0.00,27.8,27.2,00.0,36.7,29.7,09.0,0000.0,0020.99,0006.06,0004.12
2022-04-15 23:21:00,,0819.9,5.01,0.00,27.8,27.2,00.0,36.7,29.7,09.0,0000.0,0019.14,0006.02,0004.08
2022-04-15 23:22:00,,0819.9,5.01,0.00,27.8,27.2,00.0,36.7,29.7,08.9,0000.0,0018.50,0006.02,0004.07
2022-04-15 23:23:00,,0820.0,5.00,0.00,27.8,27.2,00.0,36.7,29.7,08.9,0000.0,0018.31,0006.04,0004.08
2022-04-15 23:24:00,,0820.0,4.99,0.00,27.8,27.2,00.0,36.7,29.6,08.9,0000.0,0018.49,0006.02,0004.09
2022-04-15 23:25:00,,0820.2,5.00,0.00,27.8,27.2,00.0,36.7,29.7,08.9,0000.0,0018.68,0006.01,0004.08
2022-04-15 23:26:00,,0820.2,5.00,0.00,27.8,27.2,00.0,36.7,29.7,08.9,0000.0,0019.19,0005.99,0004.09
2022-04-15 23:27:00,,0820.2,5.00,0.00,27.8,27.2,00.0,36.7,29.7,08.9,0000.0,0019.19,0005.92,0004.08
2022-04-15 23:28:00,,0820.3,5.01,0.00,27.8,27.2,00.0,36.7,29.7,09.0,0000.0,0018.85,0005.88,0004.08
2022-04-15 23:29:00,,0820.3,4.99,0.00,27.9,27.2,00.0,36.7,29.7,09.0,0000.0,0018.24,0005.87,0004.10
2022-04-15 23:30:00,,0820.3,5.00,0.00,27.9,27.2,00.0,36.7,29.7,09.0,0000.0,0017.48,0005.84,0004.12
2022-04-15 23:31:00,,0820.3,5.00,0.00,27.9,27.2,00.0,36.7,29.7,08.9,0000.0,0018.65,0005.89,0004.14
2022-04-15 23:32:00,,0820.3,4.99,0.00,27.9,27.2,00.0,36.7,29.7,08.9,0000.0,0019.05,0005.93,0004.15
2022-04-15 23:33:00,,0820.3,5.00,0.00,27.9,27.2,00.0,36.8,29.7,08.9,0000.0,0019.25,0006.00,0004.16
2022-04-15 23:34:00,,0820.4,5.00,0.00,27.9,27.3,00.0,36.8,29.7,09.0,0000.0,0019.89,0006.01,0004.16
2022-04-15 23:35:00,,0820.4,5.00,0.00,27.9,27.3,00.0,36.8,29.8,08.9,0000.0,0019.99,0006.04,0004.16
2022-04-15 23:36:00,,0820.4,5.00,0.00,27.9,27.3,00.0,36.8,29.7,08.9,0000.0,0019.49,0006.04,0004.18
2022-04-15 23:37:00,,0820.3,5.00,0.00,27.9,27.3,00.0,36.8,29.8,08.9,0000.0,0019.98,0006.08,0004.19
2022-04-15 23:38:00,,0820.3,5.00,0.00,27.9,27.3,00.0,36.8,29.7,08.9,0000.0,0020.90,0006.09,0004.19
2022-04-15 23:39:00,,0820.3,5.00,0.00,27.9,27.3,00.0,36.8,29.7,08.8,0000.0,0020.73,0006.11,0004.20
2022-04-15 23:40:00,,0820.4,4.99,0.00,27.9,27.3,00.0,36.8,29.7,08.8,0000.0,0020.95,0006.12,0004.19
2022-04-15 23:41:00,,0820.4,5.01,0.00,27.9,27.2,00.0,36.8,29.7,08.7,0000.0,0022.03,0006.10,0004.17
2022-04-15 23:42:00,,0820.5,5.01,0.00,27.9,27.2,00.0,36.8,29.7,08.6,0000.0,0020.67,0006.04,0004.17
2022-04-15 23:43:00,,0820.6,4.99,0.00,27.9,27.2,00.0,36.8,29.7,08.6,0000.0,0020.55,0006.01,0004.17
2022-04-15 23:44:00,,0820.6,4.99,0.00,27.9,27.2,00.0,36.8,29.7,08.6,0000.0,0020.75,0005.96,0004.17
2022-04-15 23:45:00,,0820.6,5.01,0.00,27.9,27.2,00.0,36.8,29.7,08.6,0000.0,0020.72,0005.92,0004.18
2022-04-15 23:46:00,,0820.6,5.01,0.00,27.9,27.2,00.0,36.8,29.7,08.7,0000.0,0020.38,0005.93,0004.19
2022-04-15 23:47:00,,0820.6,5.00,0.00,27.9,27.2,00.0,36.8,29.7,08.8,0000.0,0021.33,0005.91,0004.18
2022-04-15 23:48:00,,0820.7,5.00,0.00,27.9,27.2,00.0,36.8,29.7,08.7,0000.0,0020.47,0005.88,0004.15
2022-04-15 23:49:00,,0820.7,4.99,0.00,27.9,27.2,00.0,36.8,29.7,08.7,0000.0,0019.79,0005.88,0004.14
2022-04-15 23:50:00,,0820.8,4.99,0.00,27.9,27.3,00.0,36.8,29.7,08.8,0000.0,0019.79,0005.85,0004.14
2022-04-15 23:51:00,,0820.9,5.00,0.00,27.9,27.3,00.0,36.8,29.7,08.7,0000.0,0020.23,0005.85,0004.15
2022-04-15 23:52:00,,0820.8,4.99,0.00,27.9,27.3,00.0,36.8,29.7,08.7,0000.0,0019.19,0005.84,0004.15
2022-04-15 23:53:00,,0820.9,5.01,0.00,28.0,27.3,00.0,36.8,29.7,08.7,0000.0,0018.70,0005.81,0004.14
2022-04-15 23:54:00,,0821.0,5.01,0.00,28.0,27.3,00.0,36.8,29.7,08.7,0000.0,0018.33,0005.77,0004.13
2022-04-15 23:55:00,,0821.0,5.00,0.00,28.0,27.3,00.0,36.8,29.8,08.8,0000.0,0019.29,0005.76,0004.13
2022-04-15 23:56:00,,0821.0,5.00,0.00,28.0,27.3,00.0,36.9,29.8,08.7,0000.0,0019.36,0005.85,0004.13
2022-04-15 23:57:00,,0821.0,5.01,0.00,28.0,27.3,00.0,36.9,29.8,08.7,0000.0,0019.84,0005.82,0004.12
2022-04-15 23:58:00,,0821.0,5.00,0.00,28.0,27.3,00.0,36.9,29.8,08.6,0000.0,0019.14,0005.79,0004.12
2022-04-15 23:59:00,,0821.0,5.00,0.00,28.0,27.4,00.0,36.9,29.8,08.6,0000.0,0020.02,0005.77,0004.13
